Location: Unspecified
(0.0000°N, 0.0000°E)
Time: 13:44:35
(UTC+00:00)

Vanguard 1 Rocket - Pass Details

Date: 22 November 2019
Orbit: 650 x 4226 km, 34.3° (Epoch: 08 December)

Event Time Altitude Azimuth Distance (km) Brightness Sun altitude
Rises 23:10:45 0° 245° (WSW) 6,730 12.1 -68.0°
Reaches altitude 10° 23:16:21 10° 251° (WSW) 5,094 11.3 -68.5°
Enters shadow 23:17:42 13° 253° (WSW) 4,688 11.1 -68.6°
